Elkins, WV

3:24 PM EST on February 20, 2017 (GMT -0500)
Elkins-Randolph County

Weather History for KEKN - April, 2014

Change the Weather History Date:

Wednesday, April 16, 2014

  Actual Average Record
Temperature  
Mean Temperature 35 °F 50 °F  
Max Temperature 50 °F 63 °F 85 °F (2002)
Min Temperature 20 °F 37 °F 17 °F (1935)
Degree Days  
Heating Degree Days 30 15  
Month to date heating degree days 212 280  
Since 1 July heating degree days 5632 5381  
Cooling Degree Days 0 0  
Month to date cooling degree days 2 0  
Year to date cooling degree days 2 0  
Moisture  
Dew Point 17 °F    
Average Humidity 53    
Maximum Humidity 77    
Minimum Humidity 28    
Precipitation  
Precipitation T in 0.13 in 1.62 in (1939)
Month to date precipitation 0.51 2.00  
Year to date precipitation 9.96 12.29  
Snow  
Snow T in - - ()
Month to date snowfall 0.2  
Since 1 September snowfall 92.3  
Snow Depth 0.00 in    
Sea Level Pressure  
Sea Level Pressure 30.36 in    
Wind  
Wind Speed 5 mph (NNW)    
Max Wind Speed 15 mph    
Max Gust Speed 19 mph    
Visibility 10 miles    
Events Snow    
T = Trace of Precipitation, MM = Missing Value Source: NWS Daily Summary

Daily Weather History Graph

Daily Weather History Graph

Search for Another Location

Airport or City:

Trip Planner

Search our weather history database for the weather conditions in past years. The results will help you decide how hot, cold, wet, or windy it might be!

Date:

Astronomy

Apr. 16, 2014 Rise Set
Actual Time 6:41 AM EDT 7:57 PM EDT
Civil Twilight 6:13 AM EDT 8:25 PM EDT
Nautical Twilight 5:40 AM EDT 8:58 PM EDT
Astronomical Twilight 5:06 AM EDT 9:33 PM EDT
Moon 9:38 PM EDT (4/16) 7:28 AM EDT (4/16)
Length of Visible Light 14h 11m
Length of Day
13h 15m
Full, 98% of the Moon is Illuminated
Apr 16
Full
Apr 22
Last Quarter
Apr 29
New
May 6
First Quarter
May 14
Full

Hourly Weather History & Observations

Time (EDT) Temp. Windchill Dew Point Humidity Pressure Visibility Wind Dir Wind Speed Gust Speed Precip Events Conditions
12:00 AM 26.1 °F 16.8 °F 18.0 °F 71% 30.13 in 7.0 mi NW 9.2 mph - 0.00 in Snow Light Snow
12:46 AM 24.8 °F 14.6 °F 17.6 °F 74% 30.14 in 5.0 mi NW 10.4 mph 18.4 mph 0.00 in Snow Light Snow
12:51 AM 25.0 °F 13.1 °F 18.0 °F 75% 30.22 in 6.0 mi NW 13.8 mph 19.6 mph 0.00 in Snow Light Snow
1:20 AM 25.0 °F 17.1 °F 18.0 °F 75% 30.15 in 9.0 mi Variable 6.9 mph - 0.00 in Snow Light Snow
1:51 AM 25.0 °F 17.1 °F 15.1 °F 66% 30.25 in 10.0 mi NW 6.9 mph - 0.00 in   Overcast
2:01 AM 25.0 °F 17.1 °F 15.1 °F 66% 30.16 in 10.0 mi NW 6.9 mph - N/A   Mostly Cloudy
2:51 AM 21.9 °F - 15.1 °F 75% 30.26 in 10.0 mi Calm Calm - N/A   Clear
3:51 AM 24.1 °F 18.2 °F 16.0 °F 71% 30.29 in 10.0 mi NNW 4.6 mph - N/A   Mostly Cloudy
4:51 AM 23.0 °F 15.8 °F 12.9 °F 65% 30.32 in 10.0 mi NW 5.8 mph - N/A   Clear
5:47 AM 23.0 °F 18.4 °F 14.0 °F 68% 30.26 in 10.0 mi NW 3.5 mph - N/A   Mostly Cloudy
5:51 AM 23.0 °F 18.4 °F 14.0 °F 68% 30.35 in 10.0 mi North 3.5 mph - N/A   Mostly Cloudy
6:16 AM 23.0 °F 17.0 °F 14.0 °F 68% 30.28 in 10.0 mi NNW 4.6 mph - N/A   Scattered Clouds
6:51 AM 23.0 °F - 15.1 °F 72% 30.39 in 10.0 mi Calm Calm - N/A   Mostly Cloudy
7:51 AM 25.0 °F - 16.0 °F 69% 30.44 in 10.0 mi Calm Calm - N/A   Overcast
8:51 AM 25.0 °F 18.1 °F 16.0 °F 69% 30.46 in 10.0 mi North 5.8 mph - N/A   Overcast
9:37 AM 27.0 °F 19.5 °F 16.0 °F 63% 30.39 in 10.0 mi North 6.9 mph - N/A   Scattered Clouds
9:51 AM 28.9 °F 21.1 °F 17.1 °F 61% 30.47 in 10.0 mi North 8.1 mph - N/A   Clear
10:51 AM 30.0 °F 26.5 °F 17.1 °F 59% 30.48 in 10.0 mi North 3.5 mph - N/A   Mostly Cloudy
11:13 AM 32.0 °F 28.7 °F 19.9 °F 61% 30.40 in 10.0 mi Variable 3.5 mph - N/A   Overcast
11:51 AM 34.0 °F 29.8 °F 19.0 °F 54% 30.49 in 10.0 mi Variable 4.6 mph - N/A   Scattered Clouds
12:51 PM 36.0 °F 32.1 °F 18.0 °F 48% 30.47 in 10.0 mi Variable 4.6 mph - N/A   Clear
1:51 PM 39.9 °F 33.9 °F 19.0 °F 43% 30.45 in 10.0 mi NW 9.2 mph - N/A   Clear
2:51 PM 44.1 °F 40.1 °F 19.9 °F 38% 30.43 in 10.0 mi Variable 6.9 mph - N/A   Clear
3:51 PM 46.9 °F - 21.0 °F 36% 30.41 in 10.0 mi WNW 8.1 mph - N/A   Clear
4:51 PM 48.0 °F - 19.9 °F 33% 30.40 in 10.0 mi Variable 5.8 mph - N/A   Clear
5:51 PM 50.0 °F - 21.0 °F 32% 30.38 in 10.0 mi Variable 5.8 mph - N/A   Clear
6:51 PM 48.9 °F - 19.9 °F 32% 30.38 in 10.0 mi NNW 5.8 mph - N/A   Clear
7:51 PM 45.0 °F 43.5 °F 14.0 °F 29% 30.39 in 10.0 mi Variable 3.5 mph - N/A   Clear
8:51 PM 39.9 °F 37.8 °F 17.1 °F 40% 30.40 in 10.0 mi SE 3.5 mph - N/A   Clear
9:51 PM 39.9 °F 35.8 °F 16.0 °F 38% 30.42 in 10.0 mi Variable 5.8 mph - N/A   Clear
10:51 PM 37.9 °F 35.5 °F 18.0 °F 45% 30.43 in 10.0 mi ESE 3.5 mph - N/A   Clear
11:51 PM 39.0 °F 33.4 °F 17.1 °F 41% 30.42 in 10.0 mi SE 8.1 mph - N/A   Clear